Find Starlink 4430

NORAD ID: 53485 Int'l Des: 2022-099 Owner: SPXS Country: US Constellation: starlink operational
LEOCIRCULARRETROGRADESSO

現在のビュー

3D地球を読み込み中...

About Starlink 4430

Starlink 4430 (NORAD 53485) is a starlink constellation satellite (v1.5) launched Aug 12, 2022 by SPXS of US. It operates in LEO, CIRCULAR, RETROGRADE, SSO orbit with a mass of 300.00 kg.

Starlink 4430について

説明を読み込み中...

次回通過

Passes for default location (London). Set your location on the main map for personalized predictions.

高度履歴

Loading altitude history...

軌道要素

1 53485U 22099W 26175.06515894 .00002434 00000-0 17256-3 0 9993
2 53485 97.3215 293.7516 0002163 120.6385 239.5056 15.05656043211980
Epoch: Jun 24, 2026 • Age: 16 hours

現在のステータス

高度 558.8 km
速度 7.58 km/s
衛星直下点 -21.39°S, 123.09°E
打ち上げ日 Aug 12, 2022
運用期間 3.8 years
タイプ internet

技術仕様

分類 Payload
質量 300.00 kg
乾燥質量 275.00 kg
総質量 300.00 kg
長さ 0.20 m
直径 2.80 m
スパン 9.00 m
形状 Box + pan
製造者 SPXS
バスタイプ Starlink
フェーズステータス In Orbit
所有者/国 SPXS/US

Most Searched